Year,Month,Day,Hour,Minute,Value (Times are PST for temperature in C)
2011,05,31,00,00,9.60
2011,05,31,00,01,9.60
2011,05,31,00,02,9.60
2011,05,31,00,03,9.60
2011,05,31,00,04,9.60
2011,05,31,00,05,9.60
2011,05,31,00,06,9.60
2011,05,31,00,07,9.60
2011,05,31,00,08,9.60
2011,05,31,00,09,9.60
2011,05,31,00,10,9.60
2011,05,31,00,11,9.60
2011,05,31,00,12,9.60
2011,05,31,00,13,9.60
2011,05,31,00,14,9.60
2011,05,31,00,15,9.60
2011,05,31,00,16,9.50
2011,05,31,00,17,9.50
2011,05,31,00,18,9.50
2011,05,31,00,19,9.50
2011,05,31,00,20,9.40
2011,05,31,00,21,9.40
2011,05,31,00,22,9.40
2011,05,31,00,23,9.40
2011,05,31,00,24,9.40
2011,05,31,00,25,9.40
2011,05,31,00,26,9.40
2011,05,31,00,27,9.30
2011,05,31,00,28,9.30
2011,05,31,00,29,9.30
2011,05,31,00,30,9.30
2011,05,31,00,31,9.30
2011,05,31,00,32,9.30
2011,05,31,00,33,9.30
2011,05,31,00,34,9.30
2011,05,31,00,35,9.30
2011,05,31,00,36,9.30
2011,05,31,00,37,9.20
2011,05,31,00,38,9.30
2011,05,31,00,39,9.30
2011,05,31,00,40,9.30
2011,05,31,00,41,9.40
2011,05,31,00,42,9.40
2011,05,31,00,43,9.40
2011,05,31,00,44,9.40
2011,05,31,00,45,9.40
2011,05,31,00,46,9.50
2011,05,31,00,47,9.40
2011,05,31,00,48,9.40
2011,05,31,00,49,9.40
2011,05,31,00,50,9.40
2011,05,31,00,51,9.30
2011,05,31,00,52,9.30
2011,05,31,00,53,9.30
2011,05,31,00,54,9.30
2011,05,31,00,55,9.20
2011,05,31,00,56,9.20
2011,05,31,00,57,9.20
2011,05,31,00,58,9.10
2011,05,31,00,59,9.10
2011,05,31,01,00,9.10
2011,05,31,01,01,9.10
2011,05,31,01,02,9.10
2011,05,31,01,03,9.00
2011,05,31,01,04,9.00
2011,05,31,01,05,9.00
2011,05,31,01,06,9.00
2011,05,31,01,07,9.00
2011,05,31,01,08,9.00
2011,05,31,01,09,9.00
2011,05,31,01,10,9.00
2011,05,31,01,11,9.00
2011,05,31,01,12,9.00
2011,05,31,01,13,9.00
2011,05,31,01,14,8.90
2011,05,31,01,15,9.00
2011,05,31,01,16,8.90
2011,05,31,01,17,9.00
2011,05,31,01,18,9.00
2011,05,31,01,19,9.00
2011,05,31,01,20,9.10
2011,05,31,01,21,9.10
2011,05,31,01,22,9.10
2011,05,31,01,23,9.10
2011,05,31,01,24,9.10
2011,05,31,01,25,9.10
2011,05,31,01,26,9.10
2011,05,31,01,27,9.10
2011,05,31,01,28,9.10
2011,05,31,01,29,9.10
2011,05,31,01,30,9.10
2011,05,31,01,31,9.10
2011,05,31,01,32,9.10
2011,05,31,01,33,9.10
2011,05,31,01,34,9.10
2011,05,31,01,35,9.10
2011,05,31,01,36,9.10
2011,05,31,01,37,9.10
2011,05,31,01,38,9.10
2011,05,31,01,39,9.10
2011,05,31,01,40,9.00
2011,05,31,01,41,9.00
2011,05,31,01,42,9.00
2011,05,31,01,43,9.00
2011,05,31,01,44,9.00
2011,05,31,01,45,8.90
2011,05,31,01,46,8.90
2011,05,31,01,47,8.90
2011,05,31,01,48,8.90
2011,05,31,01,49,8.80
2011,05,31,01,50,8.80
2011,05,31,01,51,8.80
2011,05,31,01,52,8.80
2011,05,31,01,53,8.80
2011,05,31,01,54,8.80
2011,05,31,01,55,8.70
2011,05,31,01,56,8.80
2011,05,31,01,57,8.80
2011,05,31,01,58,8.80
2011,05,31,01,59,8.80
2011,05,31,02,00,8.80
2011,05,31,02,01,8.80
2011,05,31,02,02,8.80
2011,05,31,02,03,8.80
2011,05,31,02,04,8.80
2011,05,31,02,05,8.80
2011,05,31,02,06,8.80
2011,05,31,02,07,8.80
2011,05,31,02,08,8.80
2011,05,31,02,09,8.70
2011,05,31,02,10,8.70
2011,05,31,02,11,8.70
2011,05,31,02,12,8.70
2011,05,31,02,13,8.60
2011,05,31,02,14,8.60
2011,05,31,02,15,8.60
2011,05,31,02,16,8.50
2011,05,31,02,17,8.50
2011,05,31,02,18,8.40
2011,05,31,02,19,8.40
2011,05,31,02,20,8.40
2011,05,31,02,21,8.40
2011,05,31,02,22,8.40
2011,05,31,02,23,8.40
2011,05,31,02,24,8.40
2011,05,31,02,25,8.40
2011,05,31,02,26,8.40
2011,05,31,02,27,8.40
2011,05,31,02,28,8.40
2011,05,31,02,29,8.40
2011,05,31,02,30,8.40
2011,05,31,02,31,8.40
2011,05,31,02,32,8.40
2011,05,31,02,33,8.40
2011,05,31,02,34,8.40
2011,05,31,02,35,8.40
2011,05,31,02,36,8.40
2011,05,31,02,37,8.40
2011,05,31,02,38,8.40
2011,05,31,02,39,8.40
2011,05,31,02,40,8.30
2011,05,31,02,41,8.30
2011,05,31,02,42,8.30
2011,05,31,02,43,8.30
2011,05,31,02,44,8.30
2011,05,31,02,45,8.30
2011,05,31,02,46,8.30
2011,05,31,02,47,8.30
2011,05,31,02,48,8.30
2011,05,31,02,49,8.30
2011,05,31,02,50,8.20
2011,05,31,02,51,8.20
2011,05,31,02,52,8.20
2011,05,31,02,53,8.20
2011,05,31,02,54,8.20
2011,05,31,02,55,8.10
2011,05,31,02,56,8.10
2011,05,31,02,57,8.10
2011,05,31,02,58,8.10
2011,05,31,02,59,8.10
2011,05,31,03,00,8.10
2011,05,31,03,01,8.10
2011,05,31,03,02,8.10
2011,05,31,03,03,8.10
2011,05,31,03,04,8.00
2011,05,31,03,05,8.00
2011,05,31,03,06,8.00
2011,05,31,03,07,8.00
2011,05,31,03,08,7.90
2011,05,31,03,09,7.90
2011,05,31,03,10,8.00
2011,05,31,03,11,8.00
2011,05,31,03,12,8.00
2011,05,31,03,13,8.00
2011,05,31,03,14,7.90
2011,05,31,03,15,7.90
2011,05,31,03,16,7.90
2011,05,31,03,17,7.90
2011,05,31,03,18,7.90
2011,05,31,03,19,7.90
2011,05,31,03,20,8.00
2011,05,31,03,21,8.00
2011,05,31,03,22,8.00
2011,05,31,03,23,8.10
2011,05,31,03,24,8.10
2011,05,31,03,25,8.10
2011,05,31,03,26,8.10
2011,05,31,03,27,8.20
2011,05,31,03,28,8.20
2011,05,31,03,29,8.20
2011,05,31,03,30,8.20
2011,05,31,03,31,8.20
2011,05,31,03,32,8.20
2011,05,31,03,33,8.20
2011,05,31,03,34,8.20
2011,05,31,03,35,8.20
2011,05,31,03,36,8.20
2011,05,31,03,37,8.20
2011,05,31,03,38,8.20
2011,05,31,03,39,8.20
2011,05,31,03,40,8.20
2011,05,31,03,41,8.20
2011,05,31,03,42,8.10
2011,05,31,03,43,8.10
2011,05,31,03,44,8.10
2011,05,31,03,45,8.10
2011,05,31,03,46,8.10
2011,05,31,03,47,8.10
2011,05,31,03,48,8.10
2011,05,31,03,49,8.10
2011,05,31,03,50,8.10
2011,05,31,03,51,8.10
2011,05,31,03,52,8.20
2011,05,31,03,53,8.20
2011,05,31,03,54,8.20
2011,05,31,03,55,8.20
2011,05,31,03,56,8.20
2011,05,31,03,57,8.20
2011,05,31,03,58,8.20
2011,05,31,03,59,8.20
2011,05,31,04,00,8.20
2011,05,31,04,01,8.20
2011,05,31,04,02,8.20
2011,05,31,04,03,8.20
2011,05,31,04,04,8.20
2011,05,31,04,05,8.20
2011,05,31,04,06,8.30
2011,05,31,04,07,8.30
2011,05,31,04,08,8.30
2011,05,31,04,09,8.30
2011,05,31,04,10,8.40
2011,05,31,04,11,8.40
2011,05,31,04,12,8.40
2011,05,31,04,13,8.40
2011,05,31,04,14,8.40
2011,05,31,04,15,8.40
2011,05,31,04,16,8.40
2011,05,31,04,17,8.40
2011,05,31,04,18,8.40
2011,05,31,04,19,8.40
2011,05,31,04,20,8.40
2011,05,31,04,21,8.50
2011,05,31,04,22,8.50
2011,05,31,04,23,8.50
2011,05,31,04,24,8.50
2011,05,31,04,25,8.50
2011,05,31,04,26,8.60
2011,05,31,04,27,8.60
2011,05,31,04,28,8.60
2011,05,31,04,29,8.60
2011,05,31,04,30,8.60
2011,05,31,04,31,8.60
2011,05,31,04,32,8.60
2011,05,31,04,33,8.60
2011,05,31,04,34,8.60
2011,05,31,04,35,8.60
2011,05,31,04,36,8.60
2011,05,31,04,37,8.60
2011,05,31,04,38,8.60
2011,05,31,04,39,8.60
2011,05,31,04,40,8.60
2011,05,31,04,41,8.60
2011,05,31,04,42,8.70
2011,05,31,04,43,8.70
2011,05,31,04,44,8.70
2011,05,31,04,45,8.70
2011,05,31,04,46,8.70
2011,05,31,04,47,8.70
2011,05,31,04,48,8.70
2011,05,31,04,49,8.70
2011,05,31,04,50,8.70
2011,05,31,04,51,8.80
2011,05,31,04,52,8.80
2011,05,31,04,53,8.80
2011,05,31,04,54,8.80
2011,05,31,04,55,8.80
2011,05,31,04,56,8.80
2011,05,31,04,57,8.80
2011,05,31,04,58,8.90
2011,05,31,04,59,8.90
2011,05,31,05,00,9.00
2011,05,31,05,01,9.00
2011,05,31,05,02,9.10
2011,05,31,05,03,9.10
2011,05,31,05,04,9.10
2011,05,31,05,05,9.10
2011,05,31,05,06,9.10
2011,05,31,05,07,9.10
2011,05,31,05,08,9.20
2011,05,31,05,09,9.20
2011,05,31,05,10,9.20
2011,05,31,05,11,9.20
2011,05,31,05,12,9.20
2011,05,31,05,13,9.20
2011,05,31,05,14,9.20
2011,05,31,05,15,9.20
2011,05,31,05,16,9.20
2011,05,31,05,17,9.20
2011,05,31,05,18,9.20
2011,05,31,05,19,9.20
2011,05,31,05,20,9.20
2011,05,31,05,21,9.20
2011,05,31,05,22,9.20
2011,05,31,05,23,9.20
2011,05,31,05,24,9.20
2011,05,31,05,25,9.20
2011,05,31,05,26,9.20
2011,05,31,05,27,9.20
2011,05,31,05,28,9.20
2011,05,31,05,29,9.30
2011,05,31,05,30,9.30
2011,05,31,05,31,9.30
2011,05,31,05,32,9.30
2011,05,31,05,33,9.30
2011,05,31,05,34,9.30
2011,05,31,05,35,9.40
2011,05,31,05,36,9.40
2011,05,31,05,37,9.40
2011,05,31,05,38,9.40
2011,05,31,05,39,9.40
2011,05,31,05,40,9.40
2011,05,31,05,41,9.40
2011,05,31,05,42,9.50
2011,05,31,05,43,9.50
2011,05,31,05,44,9.50
2011,05,31,05,45,9.60
2011,05,31,05,46,9.60
2011,05,31,05,47,9.60
2011,05,31,05,48,9.60
2011,05,31,05,49,9.70
2011,05,31,05,50,9.70
2011,05,31,05,51,9.70
2011,05,31,05,52,9.80
2011,05,31,05,53,9.80
2011,05,31,05,54,9.80
2011,05,31,05,55,9.90
2011,05,31,05,56,9.90
2011,05,31,05,57,9.90
2011,05,31,05,58,9.90
2011,05,31,05,59,10.00
2011,05,31,06,00,10.00
2011,05,31,06,01,10.00
2011,05,31,06,02,10.00
2011,05,31,06,03,10.00
2011,05,31,06,04,10.00
2011,05,31,06,05,10.10
2011,05,31,06,06,10.10
2011,05,31,06,07,10.10
2011,05,31,06,08,10.10
2011,05,31,06,09,10.10
2011,05,31,06,10,10.10
2011,05,31,06,11,10.20
2011,05,31,06,12,10.20
2011,05,31,06,13,10.20
2011,05,31,06,14,10.20
2011,05,31,06,15,10.30
2011,05,31,06,16,10.30
2011,05,31,06,17,10.30
2011,05,31,06,18,10.30
2011,05,31,06,19,10.30
2011,05,31,06,20,10.30
2011,05,31,06,21,10.30
2011,05,31,06,22,10.30
2011,05,31,06,23,10.30
2011,05,31,06,24,10.30
2011,05,31,06,25,10.30
2011,05,31,06,26,10.30
2011,05,31,06,27,10.30
2011,05,31,06,28,10.30
2011,05,31,06,29,10.30
2011,05,31,06,30,10.40
2011,05,31,06,31,10.40
2011,05,31,06,32,10.40
2011,05,31,06,33,10.40
2011,05,31,06,34,10.50
2011,05,31,06,35,10.50
2011,05,31,06,36,10.60
2011,05,31,06,37,10.60
2011,05,31,06,38,10.60
2011,05,31,06,39,10.70
2011,05,31,06,40,10.70
2011,05,31,06,41,10.80
2011,05,31,06,42,10.90
2011,05,31,06,43,11.00
2011,05,31,06,44,11.10
2011,05,31,06,45,11.20
2011,05,31,06,46,11.30
2011,05,31,06,47,11.40
2011,05,31,06,48,11.40
2011,05,31,06,49,11.50
2011,05,31,06,50,11.60
2011,05,31,06,51,11.70
2011,05,31,06,52,11.80
2011,05,31,06,53,11.80
2011,05,31,06,54,11.90
2011,05,31,06,55,12.00
2011,05,31,06,56,12.10
2011,05,31,06,57,12.10
2011,05,31,06,58,12.20
2011,05,31,06,59,12.20
2011,05,31,07,00,12.30
2011,05,31,07,01,12.30
2011,05,31,07,02,12.30
2011,05,31,07,03,12.40
2011,05,31,07,04,12.40
2011,05,31,07,05,12.40
2011,05,31,07,06,12.50
2011,05,31,07,07,12.50
2011,05,31,07,08,12.60
2011,05,31,07,09,12.60
2011,05,31,07,10,12.60
2011,05,31,07,11,12.60
2011,05,31,07,12,12.70
2011,05,31,07,13,12.70
2011,05,31,07,14,12.70
2011,05,31,07,15,12.70
2011,05,31,07,16,12.80
2011,05,31,07,17,12.80
2011,05,31,07,18,12.80
2011,05,31,07,19,12.80
2011,05,31,07,20,12.80
2011,05,31,07,21,12.90
2011,05,31,07,22,12.90
2011,05,31,07,23,12.90
2011,05,31,07,24,12.90
2011,05,31,07,25,12.90
2011,05,31,07,26,12.90
2011,05,31,07,27,12.90
2011,05,31,07,28,12.90
2011,05,31,07,29,12.90
2011,05,31,07,30,12.90
2011,05,31,07,31,12.90
2011,05,31,07,32,12.90
2011,05,31,07,33,12.90
2011,05,31,07,34,12.90
2011,05,31,07,35,12.90
2011,05,31,07,36,12.90
2011,05,31,07,37,12.90
2011,05,31,07,38,12.90
2011,05,31,07,39,12.90
2011,05,31,07,40,12.90
2011,05,31,07,41,12.80
2011,05,31,07,42,12.80
2011,05,31,07,43,12.80
2011,05,31,07,44,12.80
2011,05,31,07,45,12.90
2011,05,31,07,46,12.90
2011,05,31,07,47,12.90
2011,05,31,07,48,12.90
2011,05,31,07,49,12.90
2011,05,31,07,50,12.90
2011,05,31,07,51,12.90
2011,05,31,07,52,13.00
2011,05,31,07,53,13.00
2011,05,31,07,54,13.00
2011,05,31,07,55,12.90
2011,05,31,07,56,12.90
2011,05,31,07,57,13.00
2011,05,31,07,58,13.00
2011,05,31,07,59,12.90
2011,05,31,08,00,12.90
2011,05,31,08,01,12.90
2011,05,31,08,02,12.90
2011,05,31,08,03,12.90
2011,05,31,08,04,12.90
2011,05,31,08,05,12.90
2011,05,31,08,06,12.90
2011,05,31,08,07,12.90
2011,05,31,08,08,12.90
2011,05,31,08,09,12.90
2011,05,31,08,10,12.90
2011,05,31,08,11,12.90
2011,05,31,08,12,12.90
2011,05,31,08,13,12.90
2011,05,31,08,14,12.90
2011,05,31,08,15,12.90
2011,05,31,08,16,12.90
2011,05,31,08,17,12.90
2011,05,31,08,18,12.90
2011,05,31,08,19,12.90
2011,05,31,08,20,12.90
2011,05,31,08,21,12.90
2011,05,31,08,22,12.90
2011,05,31,08,23,12.90
2011,05,31,08,24,12.90
2011,05,31,08,25,13.00
2011,05,31,08,26,13.00
2011,05,31,08,27,13.00
2011,05,31,08,28,13.00
2011,05,31,08,29,13.10
2011,05,31,08,30,13.10
2011,05,31,08,31,13.10
2011,05,31,08,32,13.10
2011,05,31,08,33,13.10
2011,05,31,08,34,13.20
2011,05,31,08,35,13.20
2011,05,31,08,36,13.20
2011,05,31,08,37,13.20
2011,05,31,08,38,13.20
2011,05,31,08,39,13.20
2011,05,31,08,40,13.20
2011,05,31,08,41,13.20
2011,05,31,08,42,13.20
2011,05,31,08,43,13.20
2011,05,31,08,44,13.10
2011,05,31,08,45,13.10
2011,05,31,08,46,13.10
2011,05,31,08,47,13.10
2011,05,31,08,48,13.20
2011,05,31,08,49,13.20
2011,05,31,08,50,13.20
2011,05,31,08,51,13.30
2011,05,31,08,52,13.30
2011,05,31,08,53,13.30
2011,05,31,08,54,13.40
2011,05,31,08,55,13.40
2011,05,31,08,56,13.40
2011,05,31,08,57,13.50
2011,05,31,08,58,13.50
2011,05,31,08,59,13.50
2011,05,31,09,00,13.60
2011,05,31,09,01,13.60
2011,05,31,09,02,13.70
2011,05,31,09,03,13.70
2011,05,31,09,04,13.70
2011,05,31,09,05,13.70
2011,05,31,09,06,13.80
2011,05,31,09,07,13.80
2011,05,31,09,08,13.80
2011,05,31,09,09,13.80
2011,05,31,09,10,13.80
2011,05,31,09,11,13.90
2011,05,31,09,12,13.90
2011,05,31,09,13,13.90
2011,05,31,09,14,13.90
2011,05,31,09,15,14.00
2011,05,31,09,16,14.00
2011,05,31,09,17,13.90
2011,05,31,09,18,13.90
2011,05,31,09,19,13.90
2011,05,31,09,20,13.90
2011,05,31,09,21,13.90
2011,05,31,09,22,13.90
2011,05,31,09,23,13.80
2011,05,31,09,24,13.80
2011,05,31,09,25,13.70
2011,05,31,09,26,13.70
2011,05,31,09,27,13.70
2011,05,31,09,28,13.60
2011,05,31,09,29,13.60
2011,05,31,09,30,13.60
2011,05,31,09,31,13.60
2011,05,31,09,32,13.60
2011,05,31,09,33,13.60
2011,05,31,09,34,13.60
2011,05,31,09,35,13.60
2011,05,31,09,36,13.70
2011,05,31,09,37,13.70
2011,05,31,09,38,13.70
2011,05,31,09,39,13.70
2011,05,31,09,40,13.80
2011,05,31,09,41,13.80
2011,05,31,09,42,13.90
2011,05,31,09,43,14.00
2011,05,31,09,44,14.00
2011,05,31,09,45,14.00
2011,05,31,09,46,14.10
2011,05,31,09,47,14.10
2011,05,31,09,48,14.10
2011,05,31,09,49,14.10
2011,05,31,09,50,14.10
2011,05,31,09,51,14.10
2011,05,31,09,52,14.00
2011,05,31,09,53,14.00
2011,05,31,09,54,13.90
2011,05,31,09,55,13.90
2011,05,31,09,56,13.90
2011,05,31,09,57,13.80
2011,05,31,09,58,13.80
2011,05,31,09,59,13.80
2011,05,31,10,00,13.80
2011,05,31,10,01,13.80
2011,05,31,10,02,13.70
2011,05,31,10,03,13.70
2011,05,31,10,04,13.60
2011,05,31,10,05,13.60
2011,05,31,10,06,13.60
2011,05,31,10,07,13.60
2011,05,31,10,08,13.70
2011,05,31,10,09,13.70
2011,05,31,10,10,13.70
2011,05,31,10,11,13.80
2011,05,31,10,12,13.80
2011,05,31,10,13,13.80
2011,05,31,10,14,13.80
2011,05,31,10,15,13.70
2011,05,31,10,16,13.70
2011,05,31,10,17,13.70
2011,05,31,10,18,13.70
2011,05,31,10,19,13.70
2011,05,31,10,20,13.80
2011,05,31,10,21,13.80
2011,05,31,10,22,13.80
2011,05,31,10,23,13.90
2011,05,31,10,24,13.90
2011,05,31,10,25,14.00
2011,05,31,10,26,14.10
2011,05,31,10,27,14.10
2011,05,31,10,28,14.10
2011,05,31,10,29,14.20
2011,05,31,10,30,14.20
2011,05,31,10,31,14.20
2011,05,31,10,32,14.30
2011,05,31,10,33,14.30
2011,05,31,10,34,14.30
2011,05,31,10,35,14.30
2011,05,31,10,36,14.40
2011,05,31,10,37,14.40
2011,05,31,10,38,14.40
2011,05,31,10,39,14.50
2011,05,31,10,40,14.50
2011,05,31,10,41,14.60
2011,05,31,10,42,14.60
2011,05,31,10,43,14.70
2011,05,31,10,44,14.80
2011,05,31,10,45,14.80
2011,05,31,10,46,14.90
2011,05,31,10,47,14.90
2011,05,31,10,48,14.90
2011,05,31,10,49,14.90
2011,05,31,10,50,14.90
2011,05,31,10,51,14.90
2011,05,31,10,52,14.90
2011,05,31,10,53,14.90
2011,05,31,10,54,14.90
2011,05,31,10,55,15.00
2011,05,31,10,56,15.10
2011,05,31,10,57,15.20
2011,05,31,10,58,15.30
2011,05,31,10,59,15.30
2011,05,31,11,00,15.20
2011,05,31,11,01,15.20
2011,05,31,11,02,15.20
2011,05,31,11,03,15.20
2011,05,31,11,04,15.30
2011,05,31,11,05,15.40
2011,05,31,11,06,15.40
2011,05,31,11,07,15.40
2011,05,31,11,08,15.40
2011,05,31,11,09,15.40
2011,05,31,11,10,15.40
2011,05,31,11,11,15.30
2011,05,31,11,12,15.30
2011,05,31,11,13,15.30
2011,05,31,11,14,15.20
2011,05,31,11,15,15.20
2011,05,31,11,16,15.20
2011,05,31,11,17,15.10
2011,05,31,11,18,15.10
2011,05,31,11,19,15.10
2011,05,31,11,20,15.10
2011,05,31,11,21,15.10
2011,05,31,11,22,15.20
2011,05,31,11,23,15.20
2011,05,31,11,24,15.20
2011,05,31,11,25,15.20
2011,05,31,11,26,15.20
2011,05,31,11,27,15.20
2011,05,31,11,28,15.20
2011,05,31,11,29,15.20
2011,05,31,11,30,15.20
2011,05,31,11,31,15.20
2011,05,31,11,32,15.20
2011,05,31,11,33,15.20
2011,05,31,11,34,15.20
2011,05,31,11,35,15.30
2011,05,31,11,36,15.30
2011,05,31,11,37,15.30
2011,05,31,11,38,15.30
2011,05,31,11,39,15.40
2011,05,31,11,40,15.40
2011,05,31,11,41,15.40
2011,05,31,11,42,15.40
2011,05,31,11,43,15.50
2011,05,31,11,44,15.60
2011,05,31,11,45,15.70
2011,05,31,11,46,15.70
2011,05,31,11,47,15.70
2011,05,31,11,48,15.70
2011,05,31,11,49,15.70
2011,05,31,11,50,15.70
2011,05,31,11,51,15.70
2011,05,31,11,52,15.80
2011,05,31,11,53,15.80
2011,05,31,11,54,15.80
2011,05,31,11,55,15.90
2011,05,31,11,56,16.00
2011,05,31,11,57,16.00
2011,05,31,11,58,16.00
2011,05,31,11,59,15.90
2011,05,31,12,00,15.90
2011,05,31,12,01,15.90
2011,05,31,12,02,16.00
2011,05,31,12,03,16.00
2011,05,31,12,04,15.90
2011,05,31,12,05,15.90
2011,05,31,12,06,15.90
2011,05,31,12,07,15.90
2011,05,31,12,08,15.80
2011,05,31,12,09,15.80
2011,05,31,12,10,15.80
2011,05,31,12,11,15.70
2011,05,31,12,12,15.70
2011,05,31,12,13,15.60
2011,05,31,12,14,15.60
2011,05,31,12,15,15.60
2011,05,31,12,16,15.50
2011,05,31,12,17,15.50
2011,05,31,12,18,15.50
2011,05,31,12,19,15.50
2011,05,31,12,20,15.50
2011,05,31,12,21,15.60
2011,05,31,12,22,15.50
2011,05,31,12,23,15.50
2011,05,31,12,24,15.40
2011,05,31,12,25,15.40
2011,05,31,12,26,15.30
2011,05,31,12,27,15.30
2011,05,31,12,28,15.30
2011,05,31,12,29,15.40
2011,05,31,12,30,15.40
2011,05,31,12,31,15.50
2011,05,31,12,32,15.50
2011,05,31,12,33,15.50
2011,05,31,12,34,15.60
2011,05,31,12,35,15.60
2011,05,31,12,36,15.50
2011,05,31,12,37,15.50
2011,05,31,12,38,15.50
2011,05,31,12,39,15.50
2011,05,31,12,40,15.50
2011,05,31,12,41,15.50
2011,05,31,12,42,15.50
2011,05,31,12,43,15.40
2011,05,31,12,44,15.30
2011,05,31,12,45,15.20
2011,05,31,12,46,15.20
2011,05,31,12,47,15.10
2011,05,31,12,48,15.10
2011,05,31,12,49,15.10
2011,05,31,12,50,15.20
2011,05,31,12,51,15.20
2011,05,31,12,52,15.30
2011,05,31,12,53,15.40
2011,05,31,12,54,15.50
2011,05,31,12,55,15.60
2011,05,31,12,56,15.70
2011,05,31,12,57,15.80
2011,05,31,12,58,15.90
2011,05,31,12,59,15.90
2011,05,31,13,00,15.90
2011,05,31,13,01,16.00
2011,05,31,13,02,16.00
2011,05,31,13,03,16.00
2011,05,31,13,04,16.00
2011,05,31,13,05,16.10
2011,05,31,13,06,16.20
2011,05,31,13,07,16.30
2011,05,31,13,08,16.50
2011,05,31,13,09,16.60
2011,05,31,13,10,16.70
2011,05,31,13,11,16.80
2011,05,31,13,12,16.80
2011,05,31,13,13,16.80
2011,05,31,13,14,16.90
2011,05,31,13,15,16.90
2011,05,31,13,16,16.90
2011,05,31,13,17,16.80
2011,05,31,13,18,16.80
2011,05,31,13,19,16.80
2011,05,31,13,20,16.80
2011,05,31,13,21,16.80
2011,05,31,13,22,16.80
2011,05,31,13,23,16.80
2011,05,31,13,24,16.80
2011,05,31,13,25,16.90
2011,05,31,13,26,17.00
2011,05,31,13,27,17.00
2011,05,31,13,28,17.10
2011,05,31,13,29,17.10
2011,05,31,13,30,17.10
2011,05,31,13,31,17.10
2011,05,31,13,32,17.10
2011,05,31,13,33,17.10
2011,05,31,13,34,17.10
2011,05,31,13,35,17.00
2011,05,31,13,36,17.00
2011,05,31,13,37,16.90
2011,05,31,13,38,16.80
2011,05,31,13,39,16.80
2011,05,31,13,40,16.80
2011,05,31,13,41,16.80
2011,05,31,13,42,16.80
2011,05,31,13,43,16.80
2011,05,31,13,44,16.80
2011,05,31,13,45,16.70
2011,05,31,13,46,16.70
2011,05,31,13,47,16.60
2011,05,31,13,48,16.50
2011,05,31,13,49,16.50
2011,05,31,13,50,16.40
2011,05,31,13,51,16.40
2011,05,31,13,52,16.30
2011,05,31,13,53,16.30
2011,05,31,13,54,16.20
2011,05,31,13,55,16.20
2011,05,31,13,56,16.20
2011,05,31,13,57,16.10
2011,05,31,13,58,16.00
2011,05,31,13,59,16.00
2011,05,31,14,00,16.00
2011,05,31,14,01,16.00
2011,05,31,14,02,15.90
2011,05,31,14,03,15.90
2011,05,31,14,04,15.80
2011,05,31,14,05,15.80
2011,05,31,14,06,15.90
2011,05,31,14,07,15.90
2011,05,31,14,08,15.90
2011,05,31,14,09,15.90
2011,05,31,14,10,16.00
2011,05,31,14,11,16.00
2011,05,31,14,12,16.10
2011,05,31,14,13,16.10
2011,05,31,14,14,16.20
2011,05,31,14,15,16.20
2011,05,31,14,16,16.20
2011,05,31,14,17,16.30
2011,05,31,14,18,16.30
2011,05,31,14,19,16.40
2011,05,31,14,20,16.40
2011,05,31,14,21,16.40
2011,05,31,14,22,16.50
2011,05,31,14,23,16.60
2011,05,31,14,24,16.70
2011,05,31,14,25,16.80
2011,05,31,14,26,16.90
2011,05,31,14,27,17.00
2011,05,31,14,28,17.20
2011,05,31,14,29,17.30
2011,05,31,14,30,17.30
2011,05,31,14,31,17.40
2011,05,31,14,32,17.50
2011,05,31,14,33,17.50
2011,05,31,14,34,17.50
2011,05,31,14,35,17.50
2011,05,31,14,36,17.40
2011,05,31,14,37,17.20
2011,05,31,14,38,17.10
2011,05,31,14,39,17.10
2011,05,31,14,40,17.00
2011,05,31,14,41,17.00
2011,05,31,14,42,17.00
2011,05,31,14,43,17.00
2011,05,31,14,44,17.00
2011,05,31,14,45,16.80
2011,05,31,14,46,16.80
2011,05,31,14,47,16.70
2011,05,31,14,48,16.80
2011,05,31,14,49,16.80
2011,05,31,14,50,16.80
2011,05,31,14,51,16.90
2011,05,31,14,52,17.00
2011,05,31,14,53,17.10
2011,05,31,14,54,17.20
2011,05,31,14,55,17.30
2011,05,31,14,56,17.30
2011,05,31,14,57,17.30
2011,05,31,14,58,17.30
2011,05,31,14,59,17.30
2011,05,31,15,00,17.30
2011,05,31,15,01,17.30
2011,05,31,15,02,17.40
2011,05,31,15,03,17.40
2011,05,31,15,04,17.40
2011,05,31,15,05,17.40
2011,05,31,15,06,17.30
2011,05,31,15,07,17.30
2011,05,31,15,08,17.30
2011,05,31,15,09,17.30
2011,05,31,15,10,17.30
2011,05,31,15,11,17.30
2011,05,31,15,12,17.30
2011,05,31,15,13,17.40
2011,05,31,15,14,17.50
2011,05,31,15,15,17.50
2011,05,31,15,16,17.60
2011,05,31,15,17,17.70
2011,05,31,15,18,17.80
2011,05,31,15,19,17.90
2011,05,31,15,20,17.90
2011,05,31,15,21,17.90
2011,05,31,15,22,17.90
2011,05,31,15,23,18.00
2011,05,31,15,24,18.00
2011,05,31,15,25,18.10
2011,05,31,15,26,18.00
2011,05,31,15,27,17.90
2011,05,31,15,28,18.00
2011,05,31,15,29,18.10
2011,05,31,15,30,18.20
2011,05,31,15,31,18.30
2011,05,31,15,32,18.40
2011,05,31,15,33,18.40
2011,05,31,15,34,18.40
2011,05,31,15,35,18.30
2011,05,31,15,36,18.30
2011,05,31,15,37,18.20
2011,05,31,15,38,18.20
2011,05,31,15,39,18.20
2011,05,31,15,40,18.30
2011,05,31,15,41,18.30
2011,05,31,15,42,18.30
2011,05,31,15,43,18.20
2011,05,31,15,44,18.20
2011,05,31,15,45,18.10
2011,05,31,15,46,18.00
2011,05,31,15,47,17.80
2011,05,31,15,48,17.60
2011,05,31,15,49,17.30
2011,05,31,15,50,17.10
2011,05,31,15,51,16.80
2011,05,31,15,52,16.60
2011,05,31,15,53,16.50
2011,05,31,15,54,16.40
2011,05,31,15,55,16.40
2011,05,31,15,56,16.30
2011,05,31,15,57,16.30
2011,05,31,15,58,16.30
2011,05,31,15,59,16.30
2011,05,31,16,00,16.30
2011,05,31,16,01,16.30
2011,05,31,16,02,16.30
2011,05,31,16,03,16.40
2011,05,31,16,04,16.50
2011,05,31,16,05,16.60
2011,05,31,16,06,16.60
2011,05,31,16,07,16.50
2011,05,31,16,08,16.50
2011,05,31,16,09,16.40
2011,05,31,16,10,16.40
2011,05,31,16,11,16.40
2011,05,31,16,12,16.40
2011,05,31,16,13,16.40
2011,05,31,16,14,16.30
2011,05,31,16,15,16.30
2011,05,31,16,16,16.30
2011,05,31,16,17,16.20
2011,05,31,16,18,16.20
2011,05,31,16,19,16.20
2011,05,31,16,20,16.30
2011,05,31,16,21,16.30
2011,05,31,16,22,16.30
2011,05,31,16,23,16.30
2011,05,31,16,24,16.30
2011,05,31,16,25,16.30
2011,05,31,16,26,16.30
2011,05,31,16,27,16.30
2011,05,31,16,28,16.40
2011,05,31,16,29,16.40
2011,05,31,16,30,16.40
2011,05,31,16,31,16.40
2011,05,31,16,32,16.40
2011,05,31,16,33,16.50
2011,05,31,16,34,16.40
2011,05,31,16,35,16.40
2011,05,31,16,36,16.40
2011,05,31,16,37,16.40
2011,05,31,16,38,16.40
2011,05,31,16,39,16.40
2011,05,31,16,40,16.30
2011,05,31,16,41,16.30
2011,05,31,16,42,16.20
2011,05,31,16,43,16.20
2011,05,31,16,44,16.10
2011,05,31,16,45,16.00
2011,05,31,16,46,16.00
2011,05,31,16,47,16.00
2011,05,31,16,48,16.00
2011,05,31,16,49,16.00
2011,05,31,16,50,16.00
2011,05,31,16,51,16.10
2011,05,31,16,52,16.10
2011,05,31,16,53,16.10
2011,05,31,16,54,16.20
2011,05,31,16,55,16.30
2011,05,31,16,56,16.30
2011,05,31,16,57,16.20
2011,05,31,16,58,16.20
2011,05,31,16,59,16.20
2011,05,31,17,00,16.20
2011,05,31,17,01,16.20
2011,05,31,17,02,16.30
2011,05,31,17,03,16.30
2011,05,31,17,04,16.40
2011,05,31,17,05,16.40
2011,05,31,17,06,16.40
2011,05,31,17,07,16.40
2011,05,31,17,08,16.40
2011,05,31,17,09,16.40
2011,05,31,17,10,16.40
2011,05,31,17,11,16.40
2011,05,31,17,12,16.30
2011,05,31,17,13,16.40
2011,05,31,17,14,16.40
2011,05,31,17,15,16.40
2011,05,31,17,16,16.40
2011,05,31,17,17,16.40
2011,05,31,17,18,16.30
2011,05,31,17,19,16.30
2011,05,31,17,20,16.20
2011,05,31,17,21,16.20
2011,05,31,17,22,16.30
2011,05,31,17,23,16.30
2011,05,31,17,24,16.20
2011,05,31,17,25,16.20
2011,05,31,17,26,16.20
2011,05,31,17,27,16.30
2011,05,31,17,28,16.20
2011,05,31,17,29,16.20
2011,05,31,17,30,16.20
2011,05,31,17,31,16.10
2011,05,31,17,32,16.10
2011,05,31,17,33,16.10
2011,05,31,17,34,16.00
2011,05,31,17,35,16.00